Theta_e
318 318 318 318 318 318 318 318 318 318 318 317 318 318 316 317 318 315 306 312 316 330 325 311 310 310 311 310 308 306 304 300 300 300 303 308 305 310 312 326 332 336 334 335 345
317 317 317 317 317 318 318 317 318 318 317 317 317 317 316 317 313 309 323 327 331 331 311 308 307 309 309 307 308 308 304 301 303 304 305 306 305 307 308 324 330 321 337 342 343
317 317 316 317 317 317 317 318 317 318 318 317 316 316 316 318 309 313 333 329 330 330 312 309 308 308 305 306 305 303 303 304 305 305 306 306 307 307 307 308 311 311 327 340 340
316 316 316 316 316 317 317 317 317 318 318 317 316 316 316 315 301 309 342 335 333 321 311 307 306 305 303 303 304 302 303 304 305 305 304 305 306 306 306 310 312 311 319 339 339
316 316 315 315 316 316 316 317 317 317 317 317 316 316 315 304 307 324 339 336 319 312 310 306 306 306 303 303 303 302 303 304 305 305 304 304 305 305 307 310 311 311 326 334 339
315 315 315 315 315 316 317 317 316 316 317 319 318 316 309 304 312 320 317 313 312 311 309 308 307 308 305 303 302 303 303 303 303 304 304 303 304 304 308 309 311 312 314 330 335
315 315 314 314 315 315 316 316 316 316 317 320 318 316 307 307 318 317 313 310 312 310 309 309 310 307 306 303 303 303 301 302 303 304 303 304 303 303 310 309 309 312 312 320 332
315 314 314 314 315 315 316 315 316 316 318 320 319 316 306 311 317 316 313 313 310 309 309 309 310 308 306 305 303 300 300 298 302 303 303 305 299 307 310 308 309 311 311 311 324
314 314 313 314 314 315 315 315 318 319 319 320 317 313 309 320 315 316 316 311 312 309 312 310 309 304 304 301 299 300 296 297 300 303 303 303 301 308 311 308 308 310 310 310 313
314 313 313 313 314 314 313 315 320 319 319 319 316 307 311 309 315 312 314 312 310 309 308 307 305 304 303 302 294 296 296 298 297 302 303 302 302 307 309 308 311 314 314 310 310
314 313 313 313 313 313 313 311 309 308 309 306 306 307 309 315 316 311 312 312 310 309 303 304 302 299 300 300 299 298 297 296 301 302 300 303 302 306 307 313 314 317 320 317 323
313 313 313 313 312 313 311 310 308 309 304 307 308 310 313 314 307 309 312 307 306 301 303 302 299 301 301 300 299 298 297 298 302 302 301 303 302 306 307 311 316 321 325 327 328
312 313 313 312 312 311 312 310 312 309 304 305 308 308 309 312 306 307 310 307 304 301 301 299 300 302 302 302 300 299 298 298 298 302 303 301 300 302 304 312 317 321 324 325 329
312 312 312 311 309 308 310 311 311 309 302 302 306 308 308 308 304 310 310 308 304 300 301 300 302 301 302 299 301 297 300 300 299 298 294 301 292 300 304 307 311 315 318 321 326
312 312 311 310 309 309 310 311 310 312 290 303 304 309 306 304 304 306 310 308 302 301 301 297 300 300 299 298 301 296 300 299 299 297 297 296 293 298 304 303 306 312 315 317 323
312 311 309 308 308 308 311 310 314 302 289 298 302 301 301 303 303 306 307 309 305 302 302 300 304 302 300 302 301 300 298 297 297 296 290 295 294 296 301 303 307 311 313 312 319
311 310 310 308 308 310 311 312 301 295 300 296 297 300 300 299 301 302 301 301 299 295 295 298 298 301 302 297 299 299 296 289 288 290 289 296 293 297 304 306 307 308 310 309 311
308 308 310 313 313 312 313 306 293 294 295 299 299 300 297 299 299 300 299 298 300 299 296 293 291 298 300 297 294 297 295 288 281 285 288 295 288 297 306 308 310 311 309 308 308
306 314 313 314 312 311 310 298 295 295 298 297 298 296 296 298 298 298 297 297 298 299 295 294 292 299 300 303 301 296 295 298 292 293 289 292 296 304 307 307 308 308 309 306 308
310 311 312 312 312 313 305 295 297 299 300 299 294 296 293 295 296 296 296 298 297 299 301 296 291 296 297 301 303 299 301 293 296 284 282 288 291 293 301 305 306 306 307 307 309
310 309 314 311 314 308 298 298 299 302 302 299 296 295 295 294 296 295 295 298 299 299 301 298 295 292 296 296 294 297 296 297 296 294 287 283 289 303 303 307 307 306 307 309 308
307 304 314 311 303 300 299 299 299 300 303 301 300 298 296 296 295 294 294 297 301 300 296 297 295 291 291 297 302 299 296 296 290 287 291 290 288 302 306 309 309 308 308 310 310
303 303 312 311 295 296 300 299 301 301 301 299 298 299 299 296 293 295 297 301 301 299 297 299 293 288 289 294 297 295 297 297 296 295 289 286 289 305 306 308 310 308 309 310 310
303 299 303 302 300 298 296 297 298 303 300 299 298 300 298 296 297 295 296 300 301 302 301 302 296 293 287 290 294 292 293 297 296 289 289 290 292 297 300 302 306 309 309 310 309
302 298 299 295 296 297 297 297 296 297 302 300 298 298 297 295 295 295 297 298 300 301 299 299 292 293 293 293 293 293 293 294 293 293 289 291 291 295 299 301 303 307 310 310 309
301 299 299 297 296 296 295 296 296 297 298 297 296 297 298 296 297 294 296 297 296 298 298 297 293 293 291 294 294 291 293 294 294 294 293 293 292 300 303 303 305 306 309 310 310
301 302 301 294 296 295 296 296 296 298 300 299 298 297 296 298 300 302 302 301 301 298 297 295 294 290 285 289 290 287 291 292 293 295 294 291 297 301 300 302 306 308 309 310 310
Wind_Speed
19 19 18 17 16 15 14 14 13 12 10 10 9 10 9 11 12 3 5 1 3 1 5 4 4 4 3 4 2 2 2 3 2 2 6 9 9 6 7 1 2 2 3 3 16
19 18 17 17 16 15 14 15 13 12 11 10 9 9 8 9 3 4 3 5 6 3 2 4 4 4 4 3 2 1 1 4 1 2 6 9 5 11 6 3 4 2 7 10 15
19 19 18 18 17 16 15 14 14 13 11 9 8 7 7 6 3 2 6 6 6 1 2 3 6 2 3 1 2 3 2 2 2 5 6 6 8 6 8 4 2 3 5 11 12
19 19 19 19 18 17 15 14 14 13 10 8 7 6 5 2 3 4 7 8 7 3 2 4 3 3 3 4 2 3 2 3 3 3 2 6 7 10 3 5 5 3 2 11 15
20 20 20 20 19 18 16 15 14 12 10 8 5 3 3 2 3 3 9 11 7 3 3 3 2 3 5 4 3 2 1 3 5 8 5 4 5 4 9 10 9 5 2 10 13
20 21 20 20 19 18 17 14 12 10 8 8 4 3 2 4 3 5 9 4 6 3 3 3 3 2 5 2 1 0 3 5 3 4 3 4 2 3 2 11 13 9 5 9 12
19 20 20 19 18 18 17 14 11 9 6 4 4 3 1 4 2 5 4 2 6 3 4 1 2 1 4 4 2 1 4 2 3 5 2 5 4 4 8 8 13 12 9 8 13
19 19 20 19 19 18 17 15 8 2 2 5 4 2 1 2 4 3 4 3 1 0 2 3 2 5 3 1 3 3 2 3 3 7 3 5 5 13 8 12 15 14 12 7 12
21 20 19 19 18 18 16 10 2 1 2 4 2 3 3 5 0 2 3 4 6 2 3 5 3 4 1 2 3 6 3 4 6 5 5 6 8 13 13 11 13 14 14 12 12
21 20 19 19 18 16 14 1 2 2 3 4 3 2 3 2 2 2 2 2 4 6 3 3 4 4 4 4 3 3 2 2 5 3 6 3 8 13 10 7 9 13 15 13 10
23 21 20 19 18 13 5 2 2 1 2 2 2 1 4 6 3 2 2 3 2 6 3 4 6 7 5 2 2 2 1 3 6 1 4 8 8 11 5 9 12 14 15 12 8
23 23 21 19 17 12 3 5 3 2 4 1 2 5 4 3 2 2 2 2 3 4 1 4 8 1 1 3 2 2 1 4 8 3 5 10 10 8 3 8 11 15 16 15 11
23 22 21 18 17 1 3 5 4 5 0 4 2 3 1 4 2 3 1 3 3 3 3 5 3 2 5 6 4 5 4 7 8 10 8 9 14 4 3 6 11 15 15 15 12
23 21 17 18 1 1 3 3 5 5 2 1 0 2 2 1 3 3 2 2 2 3 3 5 5 5 7 5 2 3 7 6 10 11 8 6 7 4 5 1 15 16 17 14 12
23 19 12 6 4 2 5 8 2 2 3 2 1 2 2 2 2 5 6 1 3 4 3 3 3 6 6 4 2 3 7 9 10 11 8 5 6 1 5 8 18 17 15 16 11
23 16 2 2 1 2 8 4 2 2 3 2 3 3 2 7 4 2 5 7 2 3 6 4 2 4 4 1 3 10 6 5 1 3 5 5 5 1 6 9 14 15 15 16 14
23 11 1 1 4 7 6 1 2 0 2 3 3 3 5 6 5 5 5 5 2 3 2 3 3 1 3 1 2 11 6 3 2 3 2 3 7 5 5 7 9 10 13 16 14
22 3 1 0 6 5 1 1 2 1 3 1 2 6 4 6 4 4 2 3 5 2 3 3 5 3 5 3 4 3 3 2 4 3 5 10 6 2 2 3 5 5 8 13 14
13 1 2 9 2 1 1 3 2 0 2 2 2 3 2 2 3 1 3 2 3 3 2 2 3 0 6 3 3 2 1 2 4 0 4 2 2 5 0 3 6 7 8 13 12
2 2 3 13 4 1 4 3 1 1 1 1 2 1 1 3 1 2 1 1 3 4 2 2 3 1 2 1 8 1 3 2 1 4 6 3 5 6 3 5 4 1 5 9 10
2 2 5 13 1 5 4 3 2 2 1 3 2 2 2 1 1 0 1 2 2 2 5 2 2 3 2 2 2 3 3 3 1 3 3 5 4 1 3 6 6 4 5 8 8
3 2 7 8 6 2 3 4 5 4 5 3 3 3 2 3 1 1 3 1 4 1 1 2 1 3 1 3 1 1 2 2 3 4 4 4 7 3 5 5 6 8 9 8 6
3 3 5 4 5 4 4 3 2 6 4 2 2 0 1 3 1 1 2 1 2 3 5 6 1 3 4 4 4 5 4 3 3 0 8 4 5 1 4 4 9 11 12 12 11
1 3 4 6 3 2 4 4 5 6 1 2 2 2 2 3 1 3 4 1 3 1 5 5 5 9 8 6 0 6 7 9 9 6 9 14 18 19 18 16 10 14 16 17 12
5 3 2 4 4 3 1 2 3 6 5 3 1 2 3 4 2 3 2 2 2 1 2 3 8 7 9 7 6 13 15 13 15 16 15 17 19 21 20 18 16 14 18 16 13
2 1 2 1 2 3 2 2 2 4 3 3 3 1 3 3 4 4 3 3 7 3 4 2 5 2 8 9 13 17 17 17 18 19 20 19 22 18 13 10 12 11 14 13 8
1 1 2 1 1 2 1 2 1 6 4 1 6 4 3 3 4 5 6 4 3 4 6 4 4 2 6 1 6 12 17 14 12 10 10 12 9 10 16 12 9 6 8 10 9
Wind_Direction
345 343 341 336 336 332 331 331 330 327 322 313 301 302 307 312 305 194 242 227 201 288 180 126 73 96 98 97 80 157 114 166 162 194 350 332 340 354 322 152 165 117 59 72 142
343 339 337 336 334 333 332 331 327 327 323 316 304 299 305 319 280 244 270 180 71 140 150 146 128 123 90 99 80 98 146 188 198 231 320 315 321 333 332 73 173 124 89 123 150
340 338 337 336 334 334 332 327 326 322 320 315 303 296 302 307 250 35 343 191 203 255 98 98 110 87 92 126 109 140 160 178 190 251 280 303 314 327 327 36 343 23 126 156 169
341 339 337 336 335 333 330 326 323 320 317 311 299 294 303 265 103 4 330 158 155 158 97 111 106 101 113 137 130 173 160 198 294 150 277 291 321 318 311 285 347 1 294 174 186
339 339 339 337 334 330 327 323 320 315 309 299 286 281 257 137 80 87 91 123 125 135 93 119 95 120 122 120 130 187 161 199 269 290 254 281 281 303 278 336 325 323 199 206 199
337 339 339 336 332 327 322 318 314 310 299 286 243 211 244 101 80 128 135 123 131 122 137 144 120 119 93 78 49 201 278 294 314 305 284 261 209 267 13 344 331 324 276 237 227
336 336 336 334 331 327 324 320 313 301 286 279 185 236 251 95 103 149 159 108 161 138 141 166 119 148 141 135 7 29 298 346 69 355 344 298 248 216 319 341 315 310 293 242 235
335 335 335 334 332 331 328 327 316 282 234 151 172 265 85 146 145 173 177 123 186 183 69 131 138 90 21 85 48 30 75 355 19 349 56 325 307 301 342 338 318 317 305 239 231
334 334 332 333 333 333 330 329 65 166 157 166 212 278 75 144 261 70 199 123 132 109 74 92 68 60 73 91 116 28 49 1 329 4 352 17 320 318 332 335 322 324 317 293 235
333 332 330 331 332 332 326 265 97 136 211 227 241 199 27 16 332 104 188 147 115 127 108 46 59 93 73 47 92 39 15 319 302 1 318 326 295 305 344 355 343 336 330 311 288
332 331 328 328 330 332 318 230 328 137 62 23 334 319 298 305 252 73 144 118 79 64 80 31 94 59 40 76 102 151 232 302 305 302 280 315 298 309 348 24 7 1 349 339 349
329 329 327 326 325 328 234 70 98 333 324 72 267 277 260 281 85 102 169 104 72 83 120 129 71 13 80 110 131 105 21 9 290 306 290 316 298 289 25 38 24 10 7 0 3
330 327 326 324 318 281 51 108 355 169 347 317 241 276 319 186 100 165 142 123 103 93 62 73 50 309 115 83 99 94 33 344 308 316 265 299 282 212 119 62 31 29 19 14 15
333 331 329 322 137 339 85 348 319 209 88 271 263 101 138 241 81 12 51 108 91 97 119 64 4 97 92 69 320 115 358 322 315 323 314 4 289 250 337 339 24 19 16 13 13
337 339 345 358 118 69 347 329 137 212 135 131 120 21 38 22 327 46 15 86 131 124 224 81 61 80 79 68 32 5 321 308 296 286 296 255 260 35 332 340 7 4 11 3 11
340 347 22 68 63 17 328 316 219 208 135 123 16 8 110 21 38 315 36 47 62 91 58 92 50 41 8 153 44 326 298 292 235 266 253 75 348 288 19 340 341 357 4 5 356
340 345 38 267 339 333 321 161 179 235 318 23 17 23 86 18 36 27 29 33 1 221 168 111 46 81 5 297 140 8 344 322 227 202 300 50 303 11 360 358 351 350 5 5 4
334 317 168 12 310 306 164 149 110 72 31 9 37 67 72 3 48 24 87 116 63 52 124 220 196 14 352 34 333 27 346 319 284 266 311 327 270 67 1 342 3 23 43 38 15
319 316 11 348 342 298 125 74 78 143 322 11 72 72 71 44 354 65 53 79 33 20 293 205 165 313 38 45 332 61 105 31 277 240 261 260 251 179 178 338 359 13 35 53 27
5 346 11 342 328 71 76 96 68 268 35 34 82 331 128 16 26 31 19 88 113 47 298 131 275 47 55 229 58 357 89 197 101 278 271 235 268 277 264 290 294 296 83 84 70
12 70 347 345 295 50 70 56 328 28 20 30 137 115 97 78 50 320 41 78 7 66 60 88 270 121 227 40 103 142 143 77 81 260 272 296 255 269 308 272 241 188 144 121 93
358 58 347 332 49 26 48 339 335 347 18 55 90 100 149 163 233 240 225 299 350 158 96 57 146 248 54 105 29 325 153 181 230 204 242 286 274 309 258 288 218 192 169 157 138
43 318 341 352 61 21 337 344 0 10 0 24 112 114 129 174 244 196 206 108 25 178 176 172 185 275 182 167 187 238 186 156 122 160 228 238 253 152 258 250 211 209 197 194 198
32 15 14 48 31 39 5 9 345 351 15 24 127 127 139 170 172 198 212 215 360 89 102 165 188 238 261 296 152 238 218 209 217 226 261 238 282 290 292 286 263 224 217 212 221
17 68 17 8 32 28 267 340 351 1 354 347 135 231 179 190 210 221 210 270 224 136 100 225 246 219 249 250 239 261 257 241 230 252 257 281 284 288 291 299 295 254 232 230 225
52 346 119 101 284 320 6 53 40 348 298 333 343 323 191 205 226 275 236 218 262 169 197 164 242 231 267 263 257 260 259 256 261 263 261 266 276 291 306 309 310 266 234 216 203
102 107 270 47 342 289 68 74 352 334 249 294 356 311 248 282 277 281 243 251 251 226 197 215 199 209 268 310 293 264 254 243 249 252 251 250 286 325 314 328 335 305 214 189 181